| time (UTC) | temp F | wind direction | speed MPH | gust MPH | rain 1hr in | rain 24hr in | rain mn in | humidity % | barometer mb |
| 20260502130716 | 42 | 347 | 4.0 | 6.0 | 0.00 | 0.00 | 0.00 | 70 | 1014.8 |
| 20260502130214 | 42 | 250 | 4.0 | 5.0 | 0.00 | 0.00 | 0.00 | 70 | 1014.8 |
| 20260502123700 | 42 | 289 | 1.0 | 2.0 | 0.00 | 0.00 | 0.00 | 71 | 1014.7 |
| 20260502123156 | 42 | 241 | 3.0 | 5.0 | 0.00 | 0.00 | 0.00 | 71 | 1014.4 |
| 20260502122653 | 42 | 221 | 2.0 | 3.0 | 0.00 | 0.00 | 0.00 | 71 | 1014.6 |
| 20260502122149 | 42 | 315 | 3.0 | 5.0 | 0.00 | 0.00 | 0.00 | 71 | 1014.6 |
| 20260502121648 | 42 | 334 | 3.0 | 5.0 | 0.00 | 0.00 | 0.00 | 72 | 1014.6 |
| 20260502121145 | 41 | 322 | 5.0 | 6.0 | 0.00 | 0.00 | 0.00 | 73 | 1014.7 |
| 20260502120641 | 41 | 228 | 3.0 | 3.0 | 0.00 | 0.00 | 0.00 | 76 | 1014.7 |
| 20260502120139 | 41 | 109 | 2.0 | 3.0 | 0.00 | 0.00 | 0.00 | 77 | 1014.5 |
| 20260502115636 | 41 | 305 | 3.0 | 6.0 | 0.00 | 0.00 | 0.00 | 77 | 1014.5 |
| 20260502115132 | 41 | 250 | 4.0 | 5.0 | 0.00 | 0.00 | 0.00 | 77 | 1014.7 |
| 20260502114628 | 41 | 247 | 4.0 | 6.0 | 0.00 | 0.00 | 0.00 | 78 | 1014.5 |
| 20260502114126 | 41 | 315 | 7.0 | 8.0 | 0.00 | 0.00 | 0.00 | 79 | 1014.7 |
| 20260502113623 | 41 | 280 | 2.0 | 3.0 | 0.00 | 0.00 | 0.00 | 80 | 1014.8 |
| 20260502113121 | 40 | 306 | 3.0 | 5.0 | 0.00 | 0.00 | 0.00 | 81 | 1014.6 |
| 20260502112619 | 40 | 292 | 2.0 | 2.0 | 0.00 | 0.00 | 0.00 | 82 | 1014.5 |
| 20260502112116 | 39 | 299 | 4.0 | 5.0 | 0.00 | 0.00 | 0.00 | 83 | 1014.5 |
| 20260502111613 | 39 | 202 | 1.0 | 1.0 | 0.00 | 0.00 | 0.00 | 83 | 1014.5 |
| 20260502111111 | 39 | 236 | 2.0 | 2.0 | 0.00 | 0.00 | 0.00 | 84 | 1014.5 |
| 20260502110608 | 39 | 193 | 2.0 | 3.0 | 0.00 | 0.00 | 0.00 | 85 | 1014.4 |
| 20260502110106 | 39 | 211 | 1.0 | 2.0 | 0.00 | 0.00 | 0.00 | 85 | 1014.5 |
| 20260502105603 | 39 | 279 | 4.0 | 5.0 | 0.00 | 0.00 | 0.00 | 86 | 1014.4 |
| 20260502105100 | 39 | 265 | 3.0 | 3.0 | 0.00 | 0.00 | 0.00 | 86 | 1014.2 |
| 20260502104557 | 39 | 182 | 1.0 | 1.0 | 0.00 | 0.00 | 0.00 | 86 | 1014.0 |
| 20260502104054 | 39 | 186 | 1.0 | 1.0 | 0.00 | 0.00 | 0.00 | 86 | 1014.1 |
| 20260502103552 | 39 | 231 | 3.0 | 5.0 | 0.00 | 0.00 | 0.00 | 87 | 1014.1 |
| 20260502103050 | 39 | 312 | 7.0 | 8.0 | 0.00 | 0.00 | 0.00 | 87 | 1013.9 |
| 20260502102546 | 39 | 310 | 4.0 | 6.0 | 0.00 | 0.00 | 0.00 | 88 | 1013.8 |
| 20260502102043 | 39 | 324 | 3.0 | 3.0 | 0.00 | 0.00 | 0.00 | 89 | 1014.1 |
| 20260502101541 | 39 | 273 | 2.0 | 2.0 | 0.00 | 0.00 | 0.00 | 89 | 1014.0 |
| 20260502101039 | 39 | 301 | 2.0 | 3.0 | 0.00 | 0.00 | 0.00 | 90 | 1013.9 |
| 20260502100537 | 39 | 289 | 3.0 | 5.0 | 0.00 | 0.00 | 0.00 | 90 | 1013.8 |
| 20260502091512 | 39 | 144 | 0.0 | 1.0 | 0.00 | 0.00 | 0.00 | 89 | 1013.6 |
| 20260502091009 | 39 | 176 | 0.0 | 1.0 | 0.00 | 0.00 | 0.00 | 89 | 1013.4 |
| 20260502090506 | 40 | 150 | 0.0 | 1.0 | 0.00 | 0.00 | 0.00 | 89 | 1013.4 |
| 20260502071401 | 40 | 182 | 0.0 | 0.0 | 0.00 | 0.00 | 0.00 | 91 | 1012.8 |
| 20260502070859 | 40 | 313 | 3.0 | 3.0 | 0.00 | 0.00 | 0.00 | 91 | 1013.0 |
| 20260502070356 | 40 | 180 | 1.0 | 1.0 | 0.00 | 0.00 | 0.00 | 91 | 1012.8 |
| 20260502065855 | 40 | 300 | 3.0 | 3.0 | 0.00 | 0.00 | 0.00 | 91 | 1012.8 |
| 20260502065353 | 40 | 297 | 4.0 | 5.0 | 0.00 | 0.00 | 0.00 | 91 | 1012.9 |
| 20260502064850 | 40 | 263 | 2.0 | 3.0 | 0.00 | 0.00 | 0.00 | 91 | 1012.9 |
| 20260502064348 | 40 | 254 | 2.0 | 2.0 | 0.00 | 0.00 | 0.00 | 92 | 1012.9 |
| 20260502063845 | 40 | 232 | 2.0 | 2.0 | 0.00 | 0.00 | 0.00 | 92 | 1012.9 |
| 20260502063343 | 40 | 317 | 3.0 | 3.0 | 0.00 | 0.00 | 0.00 | 92 | 1012.7 |
| 20260502062840 | 40 | 194 | 1.0 | 1.0 | 0.00 | 0.00 | 0.00 | 92 | 1013.0 |
| 20260502062337 | 40 | 213 | 3.0 | 3.0 | 0.00 | 0.00 | 0.00 | 92 | 1012.9 |
| 20260502061836 | 40 | 147 | 1.0 | 1.0 | 0.00 | 0.00 | 0.00 | 92 | 1012.9 |
| 20260502061333 | 40 | 286 | 1.0 | 2.0 | 0.00 | 0.00 | 0.00 | 92 | 1012.9 |
| 20260502060829 | 40 | 26 | 2.0 | 2.0 | 0.00 | 0.00 | 0.00 | 92 | 1012.9 |
| 20260502060324 | 40 | 281 | 3.0 | 3.0 | 0.00 | 0.00 | 0.00 | 92 | 1013.3 |
| 20260502055822 | 40 | 228 | 3.0 | 5.0 | 0.00 | 0.00 | 0.00 | 92 | 1012.9 |
| 20260502055320 | 40 | 307 | 4.0 | 5.0 | 0.00 | 0.00 | 0.00 | 92 | 1012.7 |
| 20260502054819 | 40 | 318 | 3.0 | 7.0 | 0.00 | 0.00 | 0.00 | 92 | 1012.6 |
| 20260502054316 | 40 | 313 | 6.0 | 8.0 | 0.00 | 0.00 | 0.00 | 92 | 1012.8 |
| 20260502053814 | 40 | 195 | 1.0 | 1.0 | 0.00 | 0.00 | 0.00 | 93 | 1012.8 |
| 20260502053311 | 41 | 303 | 4.0 | 7.0 | 0.00 | 0.00 | 0.00 | 93 | 1012.7 |
| 20260502052809 | 41 | 181 | 1.0 | 1.0 | 0.00 | 0.00 | 0.00 | 93 | 1012.8 |
| 20260502052306 | 41 | 314 | 6.0 | 8.0 | 0.00 | 0.00 | 0.00 | 93 | 1012.8 |
| 20260502051804 | 41 | 159 | 0.0 | 1.0 | 0.00 | 0.00 | 0.00 | 93 | 1012.8 |
| 20260502051303 | 41 | 90 | 2.0 | 2.0 | 0.00 | 0.00 | 0.00 | 93 | 1012.8 |
| 20260502050758 | 41 | 221 | 3.0 | 3.0 | 0.00 | 0.00 | 0.00 | 93 | 1013.0 |
| 20260502050254 | 41 | 205 | 1.0 | 1.0 | 0.00 | 0.00 | 0.00 | 93 | 1012.9 |
| 20260502045752 | 41 | 287 | 1.0 | 2.0 | 0.00 | 0.00 | 0.00 | 93 | 1013.1 |
| 20260502045248 | 41 | 142 | 0.0 | 0.0 | 0.00 | 0.00 | 0.00 | 93 | 1013.0 |
| 20260502044745 | 41 | 284 | 1.0 | 2.0 | 0.00 | 0.00 | 0.00 | 93 | 1013.1 |
| 20260502044241 | 41 | 216 | 3.0 | 5.0 | 0.00 | 0.00 | 0.00 | 93 | 1012.8 |
| 20260502043739 | 42 | 282 | 5.0 | 6.0 | 0.00 | 0.00 | 0.00 | 93 | 1013.0 |
| 20260502043237 | 42 | 191 | 1.0 | 1.0 | 0.00 | 0.00 | 0.00 | 93 | 1012.8 |
| 20260502042736 | 42 | 222 | 2.0 | 3.0 | 0.00 | 0.00 | 0.00 | 93 | 1012.8 |
| 20260502042233 | 42 | 338 | 4.0 | 5.0 | 0.00 | 0.00 | 0.00 | 93 | 1012.8 |
| 20260502041731 | 42 | 289 | 2.0 | 3.0 | 0.00 | 0.00 | 0.00 | 93 | 1012.9 |
| 20260502041228 | 42 | 231 | 2.0 | 3.0 | 0.00 | 0.00 | 0.00 | 93 | 1012.9 |
| 20260502040725 | 42 | 259 | 2.0 | 2.0 | 0.00 | 0.00 | 0.00 | 93 | 1012.6 |
| 20260502040222 | 43 | 319 | 3.0 | 5.0 | 0.00 | 0.00 | 0.00 | 93 | 1012.7 |
| 20260502035718 | 43 | 182 | 0.0 | 0.0 | 0.00 | 0.12 | 0.12 | 93 | 1012.6 |
| 20260502035215 | 42 | 177 | 0.0 | 0.0 | 0.00 | 0.12 | 0.12 | 93 | 1012.4 |
| 20260502034712 | 42 | 160 | 0.0 | 0.0 | 0.00 | 0.12 | 0.12 | 93 | 1012.3 |
| 20260502034211 | 42 | 175 | 0.0 | 0.0 | 0.00 | 0.12 | 0.12 | 93 | 1012.6 |
| 20260502033708 | 42 | 181 | 0.0 | 0.0 | 0.00 | 0.12 | 0.12 | 93 | 1012.6 |
| 20260502033206 | 42 | 173 | 0.0 | 0.0 | 0.00 | 0.12 | 0.12 | 93 | 1012.4 |
| 20260502032702 | 42 | 181 | 0.0 | 1.0 | 0.00 | 0.12 | 0.12 | 93 | 1012.4 |
| 20260502032158 | 42 | 183 | 0.0 | 0.0 | 0.00 | 0.12 | 0.12 | 93 | 1012.5 |
| 20260502031656 | 42 | 182 | 0.0 | 0.0 | 0.00 | 0.12 | 0.12 | 93 | 1012.4 |
| 20260502031154 | 42 | 193 | 1.0 | 1.0 | 0.05 | 0.12 | 0.12 | 93 | 1012.6 |
| 20260502030652 | 43 | 204 | 1.0 | 2.0 | 0.05 | 0.12 | 0.12 | 93 | 1012.6 |
| 20260502030150 | 43 | 194 | 2.0 | 2.0 | 0.00 | 0.11 | 0.11 | 93 | 1012.7 |
| 20260502025647 | 44 | 196 | 1.0 | 1.0 | 0.00 | 0.11 | 0.11 | 93 | 1012.6 |
| 20260502025145 | 44 | 186 | 1.0 | 1.0 | 0.00 | 0.11 | 0.11 | 93 | 1012.6 |
| 20260502024642 | 44 | 167 | 0.0 | 0.0 | 0.00 | 0.11 | 0.11 | 93 | 1012.6 |
| 20260502024140 | 44 | 183 | 0.0 | 0.0 | 0.00 | 0.11 | 0.11 | 92 | 1012.8 |
| 20260502023638 | 44 | 195 | 1.0 | 1.0 | 0.00 | 0.11 | 0.11 | 92 | 1012.7 |
| 20260502023135 | 44 | 183 | 0.0 | 0.0 | 0.00 | 0.11 | 0.11 | 92 | 1012.7 |
| 20260502022632 | 44 | 181 | 0.0 | 0.0 | 0.07 | 0.11 | 0.11 | 92 | 1012.7 |
| 20260502022129 | 44 | 191 | 1.0 | 2.0 | 0.12 | 0.11 | 0.11 | 92 | 1012.7 |
| 20260502021626 | 44 | 184 | 1.0 | 1.0 | 0.05 | 0.10 | 0.10 | 92 | 1012.9 |
| 20260502021123 | 44 | 182 | 0.0 | 0.0 | 0.00 | 0.09 | 0.09 | 92 | 1012.5 |
| 20260502020621 | 44 | 183 | 0.0 | 0.0 | 0.00 | 0.09 | 0.09 | 92 | 1012.8 |
| 20260502020117 | 44 | 183 | 0.0 | 0.0 | 0.00 | 0.09 | 0.09 | 92 | 1012.7 |
| 20260502015615 | 44 | 179 | 0.0 | 0.0 | 0.00 | 0.09 | 0.09 | 91 | 1012.6 |
| 20260502015112 | 44 | 168 | 0.0 | 0.0 | 0.00 | 0.09 | 0.09 | 91 | 1012.6 |
| 20260502014609 | 44 | 167 | 1.0 | 1.0 | 0.00 | 0.09 | 0.09 | 91 | 1012.5 |
| 20260502014106 | 44 | 171 | 0.0 | 1.0 | 0.07 | 0.09 | 0.09 | 91 | 1012.6 |
| 20260502013601 | 44 | 176 | 0.0 | 0.0 | 0.00 | 0.08 | 0.08 | 91 | 1012.6 |
| 20260502013057 | 44 | 174 | 0.0 | 0.0 | 0.00 | 0.08 | 0.08 | 91 | 1012.6 |
| 20260502012555 | 44 | 176 | 0.0 | 0.0 | 0.00 | 0.08 | 0.08 | 91 | 1012.6 |
| 20260502012053 | 44 | 175 | 0.0 | 0.0 | 0.07 | 0.08 | 0.08 | 91 | 1012.5 |
| 20260502011549 | 44 | 171 | 0.0 | 0.0 | 0.07 | 0.08 | 0.08 | 90 | 1012.5 |
| 20260502011046 | 44 | 165 | 1.0 | 1.0 | 0.00 | 0.07 | 0.07 | 90 | 1012.6 |
| 20260502010543 | 44 | 187 | 0.0 | 0.0 | 0.00 | 0.07 | 0.07 | 90 | 1012.3 |
| 20260502010039 | 44 | 187 | 0.0 | 0.0 | 0.05 | 0.07 | 0.07 | 90 | 1012.5 |
| 20260502005537 | 44 | 187 | 0.0 | 0.0 | 0.00 | 0.06 | 0.06 | 89 | 1012.4 |
| 20260502005035 | 44 | 187 | 0.0 | 0.0 | 0.07 | 0.06 | 0.06 | 89 | 1012.4 |
| 20260502004530 | 44 | 187 | 0.0 | 0.0 | 0.07 | 0.06 | 0.06 | 89 | 1012.3 |
| 20260502004027 | 44 | 187 | 0.0 | 0.0 | 0.00 | 0.05 | 0.05 | 89 | 1012.3 |
| 20260502003525 | 44 | 187 | 0.0 | 0.0 | 0.05 | 0.05 | 0.05 | 88 | 1012.3 |
| 20260502003022 | 44 | 187 | 0.0 | 0.0 | 0.05 | 0.05 | 0.05 | 88 | 1012.3 |
| 20260502002518 | 44 | 187 | 0.0 | 0.0 | 0.00 | 0.04 | 0.04 | 88 | 1012.3 |
| 20260502002016 | 44 | 187 | 0.0 | 0.0 | 0.00 | 0.04 | 0.04 | 87 | 1012.1 |
| 20260502001513 | 44 | 187 | 0.0 | 0.0 | 0.07 | 0.04 | 0.04 | 87 | 1012.2 |
| 20260502001010 | 44 | 188 | 0.0 | 0.0 | 0.07 | 0.04 | 0.04 | 87 | 1012.3 |
| 20260502000509 | 44 | 187 | 0.0 | 0.0 | 0.00 | 0.03 | 0.03 | 86 | 1012.4 |
| 20260502000005 | 45 | 187 | 0.0 | 0.0 | 0.00 | 0.03 | 0.03 | 85 | 1012.1 |
| 20260501235501 | 45 | 187 | 0.0 | 1.0 | 0.05 | 0.03 | 0.03 | 85 | 1012.1 |
| 20260501234956 | 45 | 189 | 0.0 | 0.0 | 0.05 | 0.03 | 0.03 | 84 | 1012.3 |
| 20260501234453 | 45 | 187 | 0.0 | 1.0 | 0.00 | 0.02 | 0.02 | 83 | 1012.0 |
| 20260501233951 | 46 | 216 | 3.0 | 5.0 | 0.07 | 0.02 | 0.02 | 81 | 1012.1 |
| 20260501233449 | 46 | 194 | 1.0 | 1.0 | 0.07 | 0.02 | 0.02 | 80 | 1012.1 |
| 20260501232944 | 46 | 184 | 0.0 | 1.0 | 0.00 | 0.01 | 0.01 | 78 | 1012.2 |
| 20260501232442 | 47 | 209 | 2.0 | 2.0 | 0.05 | 0.01 | 0.01 | 76 | 1012.2 |
| 20260501231939 | 47 | 192 | 1.0 | 1.0 | 0.05 | 0.01 | 0.01 | 75 | 1012.1 |
| 20260501231437 | 47 | 182 | 0.0 | 0.0 | 0.00 | 0.00 | 0.00 | 74 | 1012.0 |
| 20260501230935 | 47 | 190 | 1.0 | 1.0 | 0.00 | 0.00 | 0.00 | 73 | 1012.0 |
| 20260501230434 | 48 | 211 | 5.0 | 7.0 | 0.00 | 0.00 | 0.00 | 72 | 1012.0 |
| 20260501225931 | 48 | 230 | 2.0 | 3.0 | 0.00 | 0.00 | 0.00 | 71 | 1011.9 |
| 20260501225428 | 48 | 193 | 1.0 | 1.0 | 0.00 | 0.00 | 0.00 | 69 | 1011.8 |
| 20260501224924 | 49 | 200 | 1.0 | 1.0 | 0.00 | 0.00 | 0.00 | 67 | 1011.7 |
| 20260501224421 | 49 | 207 | 3.0 | 3.0 | 0.00 | 0.00 | 0.00 | 65 | 1011.7 |
| 20260501223918 | 50 | 222 | 3.0 | 3.0 | 0.00 | 0.00 | 0.00 | 65 | 1011.6 |
| 20260501223414 | 50 | 145 | 1.0 | 1.0 | 0.00 | 0.00 | 0.00 | 63 | 1011.4 |
| 20260501222910 | 50 | 184 | 0.0 | 1.0 | 0.00 | 0.00 | 0.00 | 64 | 1011.5 |
| 20260501222408 | 50 | 203 | 1.0 | 1.0 | 0.00 | 0.00 | 0.00 | 63 | 1011.6 |
| 20260501221904 | 51 | 198 | 2.0 | 2.0 | 0.00 | 0.00 | 0.00 | 60 | 1011.4 |
| 20260501221401 | 51 | 216 | 1.0 | 2.0 | 0.00 | 0.00 | 0.00 | 59 | 1011.5 |
| 20260501220859 | 51 | 199 | 1.0 | 2.0 | 0.00 | 0.00 | 0.00 | 58 | 1011.6 |
| 20260501220356 | 51 | 198 | 3.0 | 5.0 | 0.00 | 0.00 | 0.00 | 57 | 1011.6 |
| 20260501215852 | 51 | 191 | 1.0 | 1.0 | 0.00 | 0.00 | 0.00 | 57 | 1011.7 |
| 20260501215349 | 51 | 214 | 2.0 | 2.0 | 0.00 | 0.00 | 0.00 | 57 | 1011.7 |
| 20260501214845 | 51 | 291 | 4.0 | 5.0 | 0.00 | 0.00 | 0.00 | 57 | 1011.6 |
| 20260501214340 | 50 | 154 | 3.0 | 3.0 | 0.00 | 0.00 | 0.00 | 58 | 1011.9 |
| 20260501213836 | 51 | 164 | 1.0 | 1.0 | 0.00 | 0.00 | 0.00 | 58 | 1011.8 |
| 20260501213333 | 51 | 175 | 2.0 | 2.0 | 0.00 | 0.00 | 0.00 | 59 | 1011.9 |
| 20260501212829 | 51 | 187 | 1.0 | 1.0 | 0.00 | 0.00 | 0.00 | 58 | 1011.8 |
| 20260501212326 | 52 | 191 | 1.0 | 1.0 | 0.00 | 0.00 | 0.00 | 56 | 1011.9 |
| 20260501211823 | 52 | 186 | 5.0 | 6.0 | 0.00 | 0.00 | 0.00 | 59 | 1011.9 |
| 20260501211320 | 52 | 177 | 5.0 | 5.0 | 0.00 | 0.00 | 0.00 | 57 | 1011.8 |
| 20260501210817 | 52 | 152 | 2.0 | 3.0 | 0.00 | 0.00 | 0.00 | 58 | 1011.7 |
| 20260501210314 | 52 | 192 | 3.0 | 3.0 | 0.00 | 0.00 | 0.00 | 56 | 1011.8 |
| 20260501205810 | 52 | 208 | 2.0 | 2.0 | 0.00 | 0.00 | 0.00 | 56 | 1011.7 |
| 20260501205307 | 51 | 261 | 5.0 | 6.0 | 0.00 | 0.00 | 0.00 | 55 | 1011.8 |
| 20260501204804 | 52 | 225 | 2.0 | 3.0 | 0.00 | 0.00 | 0.00 | 56 | 1011.9 |
| 20260501204301 | 52 | 248 | 3.0 | 3.0 | 0.00 | 0.00 | 0.00 | 55 | 1011.8 |
| 20260501203757 | 52 | 182 | 3.0 | 3.0 | 0.00 | 0.00 | 0.00 | 57 | 1011.8 |
| 20260501203254 | 52 | 170 | 0.0 | 1.0 | 0.00 | 0.00 | 0.00 | 54 | 1011.7 |
| 20260501202751 | 53 | 168 | 5.0 | 7.0 | 0.00 | 0.00 | 0.00 | 53 | 1011.9 |
| 20260501202248 | 52 | 204 | 2.0 | 3.0 | 0.00 | 0.00 | 0.00 | 53 | 1011.7 |
| 20260501201745 | 53 | 236 | 4.0 | 5.0 | 0.00 | 0.00 | 0.00 | 54 | 1011.8 |
| 20260501201242 | 53 | 209 | 1.0 | 2.0 | 0.00 | 0.00 | 0.00 | 53 | 1011.7 |
| 20260501200738 | 53 | 280 | 3.0 | 3.0 | 0.00 | 0.00 | 0.00 | 53 | 1011.8 |
| 20260501200235 | 53 | 196 | 1.0 | 1.0 | 0.00 | 0.00 | 0.00 | 54 | 1011.7 |
| 20260501195733 | 52 | 179 | 3.0 | 3.0 | 0.00 | 0.00 | 0.00 | 55 | 1012.0 |
| 20260501195229 | 52 | 188 | 1.0 | 2.0 | 0.00 | 0.00 | 0.00 | 53 | 1011.9 |
| 20260501194725 | 51 | 199 | 0.0 | 1.0 | 0.00 | 0.00 | 0.00 | 54 | 1012.0 |
| 20260501194221 | 52 | 234 | 3.0 | 3.0 | 0.00 | 0.00 | 0.00 | 53 | 1011.8 |
| 20260501193717 | 52 | 281 | 2.0 | 5.0 | 0.00 | 0.00 | 0.00 | 52 | 1011.7 |
| 20260501193216 | 52 | 180 | 2.0 | 2.0 | 0.00 | 0.00 | 0.00 | 53 | 1011.7 |
| 20260501192714 | 52 | 202 | 2.0 | 2.0 | 0.00 | 0.00 | 0.00 | 53 | 1011.9 |
| 20260501192210 | 53 | 192 | 4.0 | 5.0 | 0.00 | 0.00 | 0.00 | 54 | 1011.8 |
| 20260501191707 | 53 | 229 | 3.0 | 5.0 | 0.00 | 0.00 | 0.00 | 52 | 1012.1 |
| 20260501191205 | 53 | 200 | 2.0 | 3.0 | 0.00 | 0.00 | 0.00 | 52 | 1012.1 |
| 20260501190701 | 53 | 176 | 1.0 | 1.0 | 0.00 | 0.00 | 0.00 | 53 | 1012.2 |
| 20260501190156 | 53 | 286 | 4.0 | 5.0 | 0.00 | 0.00 | 0.00 | 51 | 1012.1 |
| 20260501185652 | 53 | 273 | 5.0 | 7.0 | 0.00 | 0.00 | 0.00 | 50 | 1012.1 |
| 20260501185148 | 54 | 152 | 4.0 | 6.0 | 0.00 | 0.00 | 0.00 | 49 | 1012.1 |
| 20260501184644 | 54 | 131 | 3.0 | 3.0 | 0.00 | 0.00 | 0.00 | 49 | 1012.1 |
| 20260501184139 | 55 | 194 | 1.0 | 1.0 | 0.00 | 0.00 | 0.00 | 48 | 1011.7 |
| 20260501183636 | 54 | 202 | 3.0 | 3.0 | 0.00 | 0.00 | 0.00 | 49 | 1012.0 |
| 20260501183132 | 55 | 127 | 4.0 | 5.0 | 0.00 | 0.00 | 0.00 | 46 | 1011.9 |
| 20260501182629 | 56 | 190 | 3.0 | 3.0 | 0.00 | 0.00 | 0.00 | 45 | 1011.9 |
| 20260501182126 | 54 | 309 | 2.0 | 2.0 | 0.00 | 0.00 | 0.00 | 47 | 1012.0 |
| 20260501181624 | 55 | 242 | 1.0 | 2.0 | 0.00 | 0.00 | 0.00 | 47 | 1012.0 |
| 20260501181120 | 54 | 185 | 0.0 | 0.0 | 0.00 | 0.00 | 0.00 | 49 | 1011.9 |
| 20260501180618 | 54 | 165 | 1.0 | 1.0 | 0.00 | 0.00 | 0.00 | 51 | 1012.2 |
| 20260501180114 | 54 | 210 | 3.0 | 3.0 | 0.00 | 0.00 | 0.00 | 48 | 1011.9 |
| 20260501175611 | 54 | 227 | 2.0 | 2.0 | 0.00 | 0.00 | 0.00 | 48 | 1012.2 |
| 20260501175108 | 53 | 174 | 1.0 | 2.0 | 0.00 | 0.00 | 0.00 | 49 | 1012.0 |
| 20260501174604 | 54 | 166 | 1.0 | 1.0 | 0.00 | 0.00 | 0.00 | 49 | 1012.1 |
| 20260501174102 | 55 | 249 | 3.0 | 5.0 | 0.00 | 0.00 | 0.00 | 48 | 1012.0 |
| 20260501173559 | 55 | 133 | 0.0 | 1.0 | 0.00 | 0.00 | 0.00 | 51 | 1012.0 |
| 20260501173056 | 55 | 197 | 5.0 | 6.0 | 0.00 | 0.00 | 0.00 | 48 | 1011.9 |
| 20260501172551 | 55 | 229 | 2.0 | 3.0 | 0.00 | 0.00 | 0.00 | 47 | 1012.1 |
| 20260501172047 | 54 | 203 | 1.0 | 2.0 | 0.00 | 0.00 | 0.00 | 47 | 1012.2 |
| 20260501171544 | 53 | 340 | 3.0 | 5.0 | 0.00 | 0.00 | 0.00 | 47 | 1012.4 |
| 20260501171041 | 53 | 219 | 4.0 | 5.0 | 0.00 | 0.00 | 0.00 | 47 | 1012.3 |
| 20260501170537 | 52 | 220 | 3.0 | 3.0 | 0.00 | 0.00 | 0.00 | 48 | 1012.1 |
| 20260501170034 | 53 | 225 | 1.0 | 2.0 | 0.00 | 0.00 | 0.00 | 49 | 1012.4 |
| 20260501165532 | 53 | 164 | 0.0 | 1.0 | 0.00 | 0.00 | 0.00 | 49 | 1012.4 |
| 20260501165030 | 53 | 198 | 2.0 | 3.0 | 0.00 | 0.00 | 0.00 | 46 | 1012.5 |
| 20260501164527 | 53 | 204 | 1.0 | 2.0 | 0.00 | 0.00 | 0.00 | 47 | 1012.5 |
| 20260501164023 | 53 | 310 | 3.0 | 3.0 | 0.00 | 0.00 | 0.00 | 46 | 1012.6 |
| 20260501163520 | 52 | 182 | 1.0 | 1.0 | 0.00 | 0.00 | 0.00 | 47 | 1012.6 |
| 20260501163017 | 52 | 288 | 4.0 | 5.0 | 0.00 | 0.00 | 0.00 | 47 | 1013.0 |
| 20260501162513 | 52 | 48 | 2.0 | 3.0 | 0.00 | 0.00 | 0.00 | 51 | 1012.7 |
| 20260501162010 | 52 | 272 | 3.0 | 3.0 | 0.00 | 0.00 | 0.00 | 51 | 1012.8 |
| 20260501161508 | 52 | 265 | 2.0 | 3.0 | 0.00 | 0.00 | 0.00 | 52 | 1012.8 |
| 20260501161004 | 52 | 160 | 0.0 | 0.0 | 0.00 | 0.00 | 0.00 | 51 | 1012.8 |
| 20260501160501 | 52 | 316 | 4.0 | 5.0 | 0.00 | 0.00 | 0.00 | 49 | 1013.0 |
| 20260501155958 | 51 | 166 | 0.0 | 1.0 | 0.00 | 0.00 | 0.00 | 51 | 1012.9 |
| 20260501155455 | 51 | 224 | 2.0 | 2.0 | 0.00 | 0.00 | 0.00 | 53 | 1012.8 |
| 20260501154951 | 51 | 108 | 2.0 | 2.0 | 0.00 | 0.00 | 0.00 | 53 | 1012.9 |
| 20260501154449 | 53 | 352 | 3.0 | 3.0 | 0.00 | 0.00 | 0.00 | 50 | 1013.1 |
| 20260501153946 | 52 | 169 | 1.0 | 1.0 | 0.00 | 0.00 | 0.00 | 52 | 1013.0 |
| 20260501153443 | 52 | 191 | 1.0 | 2.0 | 0.00 | 0.00 | 0.00 | 53 | 1013.3 |
| 20260501152939 | 53 | 320 | 6.0 | 8.0 | 0.00 | 0.00 | 0.00 | 50 | 1013.4 |
| 20260501152436 | 51 | 206 | 2.0 | 3.0 | 0.00 | 0.00 | 0.00 | 53 | 1013.1 |
| 20260501151934 | 53 | 268 | 6.0 | 7.0 | 0.00 | 0.00 | 0.00 | 51 | 1013.4 |
| 20260501151431 | 52 | 265 | 3.0 | 7.0 | 0.00 | 0.00 | 0.00 | 53 | 1013.4 |
| 20260501150927 | 52 | 275 | 3.0 | 3.0 | 0.00 | 0.00 | 0.00 | 55 | 1013.1 |
| 20260501150422 | 50 | 204 | 2.0 | 2.0 | 0.00 | 0.00 | 0.00 | 58 | 1013.4 |
| 20260501145919 | 50 | 134 | 0.0 | 1.0 | 0.00 | 0.00 | 0.00 | 58 | 1013.4 |
| 20260501145415 | 49 | 182 | 1.0 | 1.0 | 0.00 | 0.00 | 0.00 | 58 | 1013.4 |
| 20260501144914 | 49 | 233 | 3.0 | 3.0 | 0.00 | 0.00 | 0.00 | 59 | 1013.4 |
| 20260501144409 | 50 | 259 | 3.0 | 5.0 | 0.00 | 0.00 | 0.00 | 59 | 1013.1 |
| 20260501143905 | 50 | 260 | 2.0 | 2.0 | 0.00 | 0.00 | 0.00 | 60 | 1013.3 |
| 20260501143401 | 50 | 189 | 1.0 | 1.0 | 0.00 | 0.00 | 0.00 | 60 | 1013.6 |
| 20260501142858 | 48 | 62 | 3.0 | 3.0 | 0.00 | 0.00 | 0.00 | 62 | 1013.5 |
| 20260501142355 | 48 | 35 | 3.0 | 3.0 | 0.00 | 0.00 | 0.00 | 63 | 1013.6 |
| 20260501141851 | 49 | 41 | 2.0 | 3.0 | 0.00 | 0.00 | 0.00 | 62 | 1013.4 |
| 20260501141347 | 48 | 58 | 2.0 | 2.0 | 0.00 | 0.00 | 0.00 | 63 | 1013.4 |